User: anonymous   Login
Location: *
(42.3442°N, 9.2072°E)
Time: 16:39:02
(UTC+00:00)
Language:

Meteor 2-10 Rocket - Orbit

View from above orbital plane
View from above orbital plane
View from above satellite
View from above satellite

Ground track
Ground track

The orbit data is extracted from the following two-line orbital elements,

1 14453U 83109B   21135.92005617  .00000029  00000-0  71384-5 0  9999
2 14453  81.1647 108.9147 0103747 249.9187 109.0803 14.24748472950893
Epoch (UTC): 15 May 2021 22:04:52
Eccentricity: 0.0103747
inclination: 81.1647°
perigee height: 735 km
apogee height: 884 km
right ascension of ascending node: 108.9147°
argument of perigee: 249.9187°
revolutions per day: 14.24748472
mean anomaly at epoch: 109.0803°
orbit number at epoch: 95089

The dashed part of the orbit path shows where the satellite is in the earth's shadow,  

DLR